Phoenix Deer Valley, AZ

2:06 AM MST on November 18, 2019 (GMT -0700)
Phoenix-Deer Valley Municipal

Weather History for KDVT - October, 2019

Change the Weather History Date:

Tuesday, October 22, 2019

  Actual Average Record
Temperature  
Mean Temperature 74 °F -  
Max Temperature 87 °F 79 °F 98 °F (2003)
Min Temperature 61 °F 58 °F 32 °F (1997)
Cooling Degree Days 9    
Growing Degree Days 24 (Base 50)    
Moisture  
Dew Point 25 °F    
Average Humidity 17    
Maximum Humidity 23    
Minimum Humidity 11    
Precipitation  
Precipitation 0.00 in - - ()
Sea Level Pressure  
Sea Level Pressure 29.98 in    
Wind  
Wind Speed 3 mph ()    
Max Wind Speed 8 mph    
Max Gust Speed -    
Visibility 10.0 miles    
Events      
Averages and records for this station are not official NWS values.
T = Trace of Precipitation, MM = Missing Value Source: Averaged Metar Reports

Daily Weather History Graph

Daily Weather History Graph

Search for Another Location

Airport or City:

Astronomy

Oct. 22, 2019 Rise Set
Actual Time 6:38 AM MST 5:46 PM MST
Civil Twilight 6:13 AM MST 6:11 PM MST
Nautical Twilight 5:44 AM MST 6:40 PM MST
Astronomical Twilight 5:15 AM MST 7:09 PM MST
Moon 12:16 AM MST (10/22) 2:36 PM MST (10/22)
Length of Visible Light 11h 58m
Length of Day
11h 07m
Last Quarter, 36% of the Moon is Illuminated
Oct 22
Last Quarter
Oct 27
New
Nov 4
First Quarter
Nov 12
Full
Nov 19
Last Quarter

Hourly Weather History & Observations

Time (MST) Temp. Dew Point Humidity Pressure Visibility Wind Dir Wind Speed Gust Speed Precip Events Conditions
12:53 AM 64.0 °F 23.0 °F 21% 30.01 in 10.0 mi Calm Calm - N/A   Clear
1:53 AM 64.0 °F 23.0 °F 21% 30.02 in 10.0 mi NW 3.5 mph - N/A   Clear
2:53 AM 63.0 °F 23.0 °F 22% 30.02 in 10.0 mi NNE 4.6 mph - N/A   Clear
3:53 AM 63.0 °F 21.9 °F 21% 30.02 in 10.0 mi NNE 3.5 mph - N/A   Clear
4:53 AM 61.0 °F 21.0 °F 21% 30.03 in 10.0 mi Calm Calm - N/A   Clear
5:53 AM 62.1 °F 21.0 °F 21% 30.04 in 10.0 mi ENE 3.5 mph - N/A   Clear
6:53 AM 63.0 °F 21.9 °F 21% 30.06 in 10.0 mi Calm Calm - N/A   Clear
7:53 AM 69.1 °F 24.1 °F 18% 30.07 in 10.0 mi NNE 3.5 mph - N/A   Clear
8:53 AM 75.9 °F 25.0 °F 15% 30.09 in 10.0 mi Calm Calm - N/A   Clear
9:53 AM 79.0 °F 26.1 °F 14% 30.08 in 10.0 mi Calm Calm - N/A   Clear
10:53 AM 80.1 °F 26.1 °F 14% 30.07 in 10.0 mi SSW 3.5 mph - N/A   Clear
11:53 AM 82.9 °F 26.1 °F 13% 30.04 in 10.0 mi Variable 4.6 mph - N/A   Clear
12:53 PM 84.9 °F 26.1 °F 12% 30.00 in 10.0 mi West 6.9 mph - N/A   Clear
1:53 PM 86.0 °F 26.1 °F 11% 29.96 in 10.0 mi West 6.9 mph - N/A   Clear
2:53 PM 87.1 °F 26.1 °F 11% 29.94 in 10.0 mi North - - N/A   Clear
3:53 PM 86.0 °F 27.0 °F 12% 29.92 in 10.0 mi Variable 3.5 mph - N/A   Clear
4:53 PM 86.0 °F 26.1 °F 11% 29.91 in 10.0 mi WSW 8.1 mph - N/A   Clear
5:53 PM 84.0 °F 27.0 °F 13% 29.90 in 10.0 mi SW 5.8 mph - N/A   Clear
6:53 PM 80.1 °F 28.0 °F 15% 29.92 in 10.0 mi WSW 4.6 mph - N/A   Clear
7:53 PM 75.9 °F 28.0 °F 17% 29.91 in 10.0 mi North 4.6 mph - N/A   Clear
8:53 PM 71.1 °F 28.0 °F 20% 29.91 in 10.0 mi NNE 3.5 mph - N/A   Clear
9:53 PM 68.0 °F 28.0 °F 22% 29.91 in 10.0 mi Calm Calm - N/A   Clear
10:53 PM 68.0 °F 28.9 °F 23% 29.90 in 10.0 mi East 3.5 mph - N/A   Clear
11:53 PM 66.9 °F 28.0 °F 23% 29.90 in 10.0 mi NE 5.8 mph - N/A   Clear